Clarksville, TN

2:31 PM CST on January 19, 2018 (GMT -0600)
Outlaw

Weather History for KCKV - October, 2013

Change the Weather History Date:

Saturday, October 26, 2013

  Actual Average Record
Temperature  
Mean Temperature 42 °F 56 °F  
Max Temperature 57 °F 68 °F 84 °F (1991)
Min Temperature 28 °F 44 °F 25 °F (1982)
Degree Days  
Heating Degree Days 22 10  
Month to date heating degree days 166  
Since 1 July heating degree days 195  
Cooling Degree Days 0 1  
Month to date cooling degree days 32  
Year to date cooling degree days 1431  
Moisture  
Dew Point 32 °F    
Average Humidity 76    
Maximum Humidity 100    
Minimum Humidity 45    
Precipitation  
Precipitation 0.00 in 0.11 in 1.22 in (1977)
Month to date precipitation 3.36  
Year to date precipitation 40.02  
Sea Level Pressure  
Sea Level Pressure 30.21 in    
Wind  
Wind Speed 2 mph (SW)    
Max Wind Speed 15 mph    
Max Gust Speed 22 mph    
Visibility 7 miles    
Events Fog    
T = Trace of Precipitation, MM = Missing Value Source: NWS Daily Summary

Daily Weather History Graph

Daily Weather History Graph

Search for Another Location

Airport or City:

Trip Planner

Search our weather history database for the weather conditions in past years. The results will help you decide how hot, cold, wet, or windy it might be!

Date:

Astronomy

Oct. 26, 2013 Rise Set
Actual Time 7:07 AM CDT 5:59 PM CDT
Civil Twilight 6:41 AM CDT 6:25 PM CDT
Nautical Twilight 6:10 AM CDT 6:55 PM CDT
Astronomical Twilight 5:40 AM CDT 7:25 PM CDT
Moon No Moon Rise 1:21 PM CDT (10/26)
Length of Visible Light 11h 44m
Length of Day
10h 51m
Waning Gibbous, 53% of the Moon is Illuminated
Oct 26
Waning Gibbous
Oct 26
Last Quarter
Nov 3
New
Nov 9
First Quarter
Nov 17
Full

Hourly Weather History & Observations

Time (CDT) Temp. Windchill Dew Point Humidity Pressure Visibility Wind Dir Wind Speed Gust Speed Precip Events Conditions
12:52 AM 30.0 °F - 28.0 °F 92% 30.32 in 5.0 mi Calm Calm - N/A   Clear
1:01 AM 28.4 °F - 26.6 °F 93% 30.31 in 1.8 mi Calm Calm - N/A   Clear
1:11 AM 28.4 °F - 26.6 °F 93% 30.31 in 0.5 mi Calm Calm - N/A Fog Light Freezing Fog
1:44 AM 28.4 °F - 28.4 °F 100% 30.30 in 2.0 mi Calm Calm - N/A   Clear
1:52 AM 28.9 °F - 28.0 °F 96% 30.31 in 4.0 mi Calm Calm - N/A   Clear
2:52 AM 28.9 °F - 28.0 °F 96% 30.29 in 5.0 mi Calm Calm - N/A   Clear
3:37 AM 28.4 °F - 28.4 °F 100% 30.28 in 2.5 mi Calm Calm - N/A   Clear
3:45 AM 28.4 °F - 28.4 °F 100% 30.27 in 4.0 mi Calm Calm - N/A   Clear
3:52 AM 30.0 °F - 28.0 °F 92% 30.28 in 4.0 mi Calm Calm - N/A   Clear
4:17 AM 28.4 °F - 26.6 °F 93% 30.27 in 1.5 mi Calm Calm - N/A   Clear
4:38 AM 28.4 °F - 26.6 °F 93% 30.27 in 0.5 mi Calm Calm - N/A Fog Light Freezing Fog
4:52 AM 28.0 °F - 27.0 °F 96% 30.29 in 2.5 mi Calm Calm - N/A   Clear
4:59 AM 28.4 °F - 26.6 °F 93% 30.27 in 5.0 mi Calm Calm - N/A   Clear
5:52 AM 28.0 °F - 26.1 °F 92% 30.29 in 5.0 mi Calm Calm - N/A   Clear
6:52 AM 28.0 °F 22.8 °F 26.1 °F 92% 30.27 in 5.0 mi SSE 4.6 mph - N/A   Clear
7:52 AM 34.0 °F 31.0 °F 30.0 °F 85% 30.28 in 10.0 mi SSW 3.5 mph - N/A   Overcast
8:52 AM 41.0 °F 35.2 °F 30.9 °F 67% 30.27 in 10.0 mi SSW 9.2 mph - N/A   Mostly Cloudy
9:52 AM 44.1 °F 40.8 °F 32.0 °F 63% 30.24 in 10.0 mi SSW 5.8 mph - N/A   Overcast
10:52 AM 48.0 °F - 32.0 °F 54% 30.22 in 10.0 mi SSW 12.7 mph 17.3 mph N/A   Overcast
11:52 AM 51.1 °F - 32.0 °F 48% 30.20 in 10.0 mi SW 11.5 mph 20.7 mph N/A   Overcast
12:52 PM 54.0 °F - 33.1 °F 45% 30.17 in 10.0 mi SW 9.2 mph - N/A   Overcast
1:52 PM 54.0 °F - 35.1 °F 49% 30.13 in 10.0 mi SSW 11.5 mph - N/A   Overcast
2:52 PM 55.9 °F - 36.0 °F 47% 30.11 in 10.0 mi SW 11.5 mph - N/A   Overcast
3:52 PM 57.9 °F - 37.9 °F 47% 30.08 in 10.0 mi SSW 15.0 mph 21.9 mph N/A   Scattered Clouds
4:52 PM 57.0 °F - 37.9 °F 49% 30.08 in 10.0 mi SSW 10.4 mph - N/A   Mostly Cloudy
5:52 PM 57.0 °F - 39.9 °F 53% 30.07 in 10.0 mi SW 9.2 mph - N/A   Overcast
6:52 PM 55.9 °F - 39.9 °F 55% 30.10 in 10.0 mi SW 4.6 mph - N/A   Overcast
7:52 PM 55.9 °F - 41.0 °F 57% 30.12 in 10.0 mi WSW 4.6 mph - N/A   Overcast
8:52 PM 55.0 °F - 41.0 °F 59% 30.12 in 10.0 mi Calm Calm - N/A   Overcast
9:52 PM 51.1 °F - 41.0 °F 68% 30.12 in 10.0 mi Calm Calm - N/A   Clear
10:52 PM 46.9 °F - 39.9 °F 77% 30.11 in 10.0 mi Calm Calm - N/A   Clear
11:52 PM 48.0 °F - 42.1 °F 80% 30.10 in 10.0 mi Calm Calm - N/A   Overcast